Location: *
(46.3500°N, 10.9000°E)
Time: 22:44:15
(UTC+00:00)

Vanguard 2 - Pass Details

Date: 22 April 2021
Orbit: 552 x 2938 km, 32.9° (Epoch: 11 May)

Event Time Altitude Azimuth Distance (km) Brightness Sun altitude
Rises 10:40:54 0° 227° (SW) 6,784 12.6 55.3°
Reaches altitude 10° 10:46:04 10° 220° (SW) 5,715 12.4 55.5°
Maximum altitude 11:00:38 36° 163° (SSE) 3,430 12.5 55.9°
Drops below altitude 10° 11:11:26 10° 103° (ESE) 4,275 11.6 56.0°
Sets 11:14:39 0° 95° (E) 4,959 11.7 56.0°
